DW7126 Lourinha PT current weather conditions

sailwx.info

Wind from 005 at 6 knots gusting 12

Air temperature 26.1° C
Dewpoint 19.2° C

Last reported at 2019-Aug-23 13:10 UTC.
Time now 2019-Aug-23 13:58 UTC

Location: N 39°14' W 009°18'.
View on Google Maps.

See reports from other nearby stations

  
Tides and Currents Weather Stations Pressure Air Temp Water Temp Dewpoint Dewpoint Depression Visibility Wind Speed Wind Dir Waves Ship Positions
date/time (UTC)wind fromknots sea level pressurealtimeterstation pressurevisibilityair tempwater tempwave heightnotes
2019-Aug-23 13:10 005 6 gusting 12 26.1
2019-Aug-23 13:05 318 6 gusting 12 25.6
2019-Aug-23 13:00 342 6 gusting 11 26.1
2019-Aug-23 12:55 349 6 gusting 11 25.6
2019-Aug-23 12:49 342 6 gusting 11 25.0
2019-Aug-23 12:44 355 6 gusting 10 25.0
2019-Aug-23 12:39 343 6 gusting 9 24.4
2019-Aug-23 12:34 338 6 gusting 9 24.4
2019-Aug-23 12:29 318 6 gusting 9 24.4
2019-Aug-23 12:24 291 6 gusting 8 24.4
2019-Aug-23 12:19 328 6 gusting 12 24.4
2019-Aug-23 12:14 341 7 gusting 12 23.9
2019-Aug-23 12:09 327 7 gusting 13 23.9
2019-Aug-23 12:04 334 8 gusting 13 23.9
2019-Aug-23 11:59 325 8 gusting 13 23.9
2019-Aug-23 11:54 299 7 gusting 13 24.4
2019-Aug-23 11:49 342 8 gusting 13 24.4
2019-Aug-23 11:44 005 8 gusting 13 23.9
2019-Aug-23 11:39 306 8 gusting 13 24.4
2019-Aug-23 11:34 337 8 gusting 13 24.4
2019-Aug-23 11:29 349 7 gusting 12 25.0
2019-Aug-23 11:24 313 7 gusting 11 25.0
2019-Aug-23 11:19 319 7 gusting 12 25.0
2019-Aug-23 11:14 326 8 gusting 12 25.0
2019-Aug-23 11:09 346 6 gusting 12 24.4
2019-Aug-23 11:04 345 6 gusting 10 24.4
2019-Aug-23 10:59 327 6 gusting 10 25.0
2019-Aug-23 10:54 340 6 gusting 10 24.4
2019-Aug-23 10:49 320 6 gusting 10 24.4
2019-Aug-23 10:45 302 6 gusting 11 23.3
2019-Aug-23 10:39 313 6 gusting 11 23.9
2019-Aug-23 10:34 306 6 gusting 10 25.6
2019-Aug-23 10:30 348 7 gusting 11 25.6
2019-Aug-23 10:24 347 6 gusting 11 25.6
2019-Aug-23 10:19 355 6 gusting 12 25.6
2019-Aug-23 10:14 014 6 gusting 11 25.6
2019-Aug-23 10:09 012 6 gusting 10 25.0
2019-Aug-23 10:04 355 6 gusting 9 25.0
2019-Aug-23 09:59 345 6 gusting 8 25.0
2019-Aug-23 09:53 012 5 gusting 8 25.0
2019-Aug-23 09:48 337 5 gusting 8 24.4
2019-Aug-23 09:44 333 6 gusting 8 24.4
2019-Aug-23 09:39 338 6 gusting 8 23.9
2019-Aug-23 09:33 335 4 gusting 7 23.9
2019-Aug-23 09:28 342 3 gusting 7 24.4
2019-Aug-23 09:23 010 3 gusting 7 24.4
2019-Aug-23 09:18 034 4 gusting 7 23.9
2019-Aug-23 09:13 016 3 gusting 6 23.3
2019-Aug-23 09:08 355 2 gusting 4 22.8
2019-Aug-23 09:03 024 3 gusting 6 22.8
2019-Aug-23 08:58 051 4 gusting 7 22.2
2019-Aug-23 08:53 005 4 gusting 6 21.7
2019-Aug-23 08:48 351 4 gusting 6 21.7
2019-Aug-23 08:43 21.1
2019-Aug-23 08:38 340 1 gusting 5 21.1
2019-Aug-23 08:33 024 1 gusting 4 20.6
2019-Aug-23 08:28 317 1 gusting 4 20.6
2019-Aug-23 08:23 297 2 gusting 4 20.0
2019-Aug-23 08:18 285 2 gusting 5 19.4
2019-Aug-23 08:13 282 2 gusting 5 19.4
2019-Aug-23 08:08 300 1 gusting 3 19.4
2019-Aug-23 08:03 288 1 gusting 3 19.4
2019-Aug-23 07:58 015 1 gusting 3 19.4
2019-Aug-23 07:53 032 1 gusting 3 19.4
2019-Aug-23 07:48 022 1 gusting 3 19.4
2019-Aug-23 07:43 029 2 gusting 5 19.4
2019-Aug-23 07:38 019 1 gusting 5 18.9
2019-Aug-23 07:33 011 1 gusting 4 18.9
2019-Aug-23 07:28 024 2 gusting 4 18.9
2019-Aug-23 07:22 026 2 gusting 4 18.3
2019-Aug-23 07:17 330 1 gusting 3 18.3
2019-Aug-23 07:12 056 1 gusting 3 18.3
2019-Aug-23 07:07 056 1 gusting 3 18.3
2019-Aug-23 07:02 346 1 gusting 3 18.3
2019-Aug-23 07:00 346 0 gusting 3 17.8
2019-Aug-23 06:52 005 0 gusting 3 17.8
2019-Aug-23 06:47 025 17.8
2019-Aug-23 06:42 025 0 gusting 3 17.8
2019-Aug-23 06:37 026 0 gusting 3 17.2
2019-Aug-23 06:32 066 1 gusting 3 17.8
2019-Aug-23 06:27 064 2 gusting 4 17.8
2019-Aug-23 06:22 038 1 gusting 4 17.8
2019-Aug-23 06:17 061 0 gusting 2 17.8
2019-Aug-23 06:12 056 17.8
2019-Aug-23 06:07 056 17.8
2019-Aug-23 06:02 055 0 gusting 3 17.8
2019-Aug-23 05:57 056 1 gusting 3 17.8
2019-Aug-23 05:52 059 2 gusting 3 17.8
2019-Aug-23 05:46 059 2 gusting 4 17.8
2019-Aug-23 05:41 057 3 gusting 5 18.3
2019-Aug-23 05:36 058 4 gusting 6 18.3
2019-Aug-23 05:31 027 4 gusting 6 18.3
2019-Aug-23 05:26 021 4 gusting 6 18.3
2019-Aug-23 05:21 005 4 gusting 7 18.3
2019-Aug-23 05:16 032 5 gusting 7 18.3
2019-Aug-23 05:11 011 4 gusting 6 18.3
2019-Aug-23 05:06 025 5 gusting 8 18.3
2019-Aug-23 05:01 026 6 gusting 8 18.3
2019-Aug-23 04:56 013 5 gusting 8 18.3
2019-Aug-23 04:51 005 3 gusting 6 18.3
2019-Aug-23 04:46 005 3 gusting 6 18.3
2019-Aug-23 04:41 027 5 gusting 7 18.3
2019-Aug-23 04:36 005 6 gusting 8 18.3
2019-Aug-23 04:31 022 6 gusting 10 18.3
2019-Aug-23 04:26 027 6 gusting 10 18.3
2019-Aug-23 04:21 042 6 gusting 8 18.3
2019-Aug-23 04:16 016 6 gusting 8 18.3
2019-Aug-23 04:11 005 6 gusting 9 18.3
2019-Aug-23 04:06 033 6 gusting 10 18.3
2019-Aug-23 04:01 034 6 gusting 10 18.3
2019-Aug-23 03:56 023 6 gusting 10 18.3
2019-Aug-23 03:51 020 4 gusting 8 18.3
2019-Aug-23 03:46 020 3 gusting 6 18.3
2019-Aug-23 03:41 022 4 gusting 6 18.3
2019-Aug-23 03:36 034 4 gusting 6 18.3
2019-Aug-23 03:31 005 2 gusting 5 18.3
2019-Aug-23 03:26 349 3 gusting 6 18.3
2019-Aug-23 03:21 005 4 gusting 7 18.3
2019-Aug-23 03:16 019 3 gusting 6 18.3
2019-Aug-23 03:11 348 2 gusting 5 18.3
2019-Aug-23 03:06 017 2 gusting 5 18.3
2019-Aug-23 03:01 022 3 gusting 6 18.3
2019-Aug-23 02:55 18.3
2019-Aug-23 02:50 18.3
2019-Aug-23 02:46 017 1 gusting 2 17.8
2019-Aug-23 02:40 017 17.8
2019-Aug-23 02:35 017 17.8
2019-Aug-23 02:31 017 17.8
2019-Aug-23 02:30 017 17.8
2019-Aug-23 02:25 017 17.8
2019-Aug-23 02:20 017 0 gusting 2 17.8
2019-Aug-23 02:15 017 1 gusting 2 18.3
2019-Aug-23 02:10 017 1 gusting 2 18.3
2019-Aug-23 02:05 017 1 gusting 2 18.3
2019-Aug-23 02:00 017 1 gusting 3 18.3
2019-Aug-23 01:55 017 2 gusting 3 18.3
2019-Aug-23 01:50 017 0 gusting 3 18.3
2019-Aug-23 01:44 019 18.3
2019-Aug-23 01:39 019 18.3
2019-Aug-23 01:34 019 18.3
2019-Aug-23 01:29 019 18.3
2019-Aug-23 01:24 019 18.3
2019-Aug-23 01:19 019 18.3
2019-Aug-23 01:14 019 0 gusting 2 18.3
2019-Aug-23 01:09 019 0 gusting 2 18.3
2019-Aug-23 01:04 326 0 gusting 1 18.3
2019-Aug-23 00:59 326 1 gusting 3 18.3
2019-Aug-23 00:54 326 1 gusting 3 18.3
2019-Aug-23 00:49 326 1 gusting 3 18.3
2019-Aug-23 00:44 304 1 gusting 3 18.3
2019-Aug-23 00:39 229 1 gusting 2 18.3
2019-Aug-23 00:34 223 0 gusting 2 18.3
2019-Aug-23 00:29 223 0 gusting 3 18.3
2019-Aug-23 00:24 223 1 gusting 3 18.3
2019-Aug-23 00:19 249 0 gusting 2 18.3
2019-Aug-23 00:15 010 18.3
2019-Aug-23 00:08 010 18.9
2019-Aug-23 00:03 010 18.9
2019-Aug-22 23:58 010 18.9
2019-Aug-22 23:53 010 18.9
2019-Aug-22 23:48 010 18.9
2019-Aug-22 23:45 010 18.9
2019-Aug-22 23:38 010 0 gusting 2 18.9
2019-Aug-22 23:33 010 1 gusting 3 19.4
2019-Aug-22 23:28 011 1 gusting 3 19.4
2019-Aug-22 23:22 011 0 gusting 2 19.4
2019-Aug-22 23:17 011 19.4
2019-Aug-22 23:15 011 19.4
2019-Aug-22 23:07 011 0 gusting 2 19.4
2019-Aug-22 23:02 011 19.4
2019-Aug-22 22:57 011 0 gusting 3 20.0
2019-Aug-22 22:52 011 2 gusting 4 20.0
2019-Aug-22 22:47 022 3 gusting 4 20.6
2019-Aug-22 22:42 005 3 gusting 5 20.6
2019-Aug-22 22:37 016 4 gusting 5 20.6
2019-Aug-22 22:32 022 5 gusting 8 20.6
2019-Aug-22 22:27 032 5 gusting 8 20.6
2019-Aug-22 22:22 027 5 gusting 8 20.6
2019-Aug-22 22:17 016 4 gusting 7 20.6
2019-Aug-22 22:15 005 4 gusting 7 20.0
2019-Aug-22 22:07 005 4 gusting 9 20.6
2019-Aug-22 22:02 355 4 gusting 9 20.6
2019-Aug-22 21:57 334 3 gusting 6 20.6
2019-Aug-22 21:52 336 3 gusting 5 20.6
2019-Aug-22 21:47 325 2 gusting 4 20.6
2019-Aug-22 21:42 338 2 gusting 4 20.6
2019-Aug-22 21:37 027 2 gusting 5 20.6
2019-Aug-22 21:32 028 3 gusting 6 20.6
2019-Aug-22 21:27 049 3 gusting 6 20.6
2019-Aug-22 21:22 048 3 gusting 5 20.0
2019-Aug-22 21:17 021 3 gusting 4 20.0
2019-Aug-22 21:12 015 2 gusting 4 20.0
2019-Aug-22 21:07 005 1 gusting 2 20.0
2019-Aug-22 21:02 005 1 gusting 3 20.0
2019-Aug-22 20:57 005 1 gusting 3 20.0
2019-Aug-22 20:52 011 2 gusting 4 20.0
2019-Aug-22 20:47 355 2 gusting 4 20.6
2019-Aug-22 20:42 005 3 gusting 4 20.6
2019-Aug-22 20:36 017 2 gusting 6 20.6
2019-Aug-22 20:31 349 1 gusting 4 20.6
2019-Aug-22 20:26 344 2 gusting 4 20.6
2019-Aug-22 20:21 317 1 gusting 4 20.6
2019-Aug-22 20:16 005 1 gusting 6 20.6
2019-Aug-22 20:11 337 3 gusting 6 20.6
2019-Aug-22 20:06 320 4 gusting 6 20.6
2019-Aug-22 20:01 329 3 gusting 6 21.1
2019-Aug-22 19:56 330 3 gusting 5 21.1
2019-Aug-22 19:51 310 2 gusting 5 21.1
2019-Aug-22 19:46 308 2 gusting 4 21.1
2019-Aug-22 19:41 316 2 gusting 4 21.7
2019-Aug-22 19:36 330 2 gusting 4 21.7
2019-Aug-22 19:31 325 3 gusting 6 22.2
2019-Aug-22 19:26 315 3 gusting 6 22.8
2019-Aug-22 19:21 302 4 gusting 6 23.3
2019-Aug-22 19:16 333 4 gusting 6 23.3
2019-Aug-22 19:11 331 4 gusting 6 24.4
2019-Aug-22 19:06 337 3 gusting 6 24.4
2019-Aug-22 19:01 319 2 gusting 5 25.0
2019-Aug-22 18:56 316 2 gusting 4 25.6
2019-Aug-22 18:51 321 2 gusting 5 26.1
2019-Aug-22 18:46 355 3 gusting 6 27.2
2019-Aug-22 18:45 355 2 gusting 6 26.7
2019-Aug-22 18:36 024 3 gusting 6 27.8
2019-Aug-22 18:31 27.8
2019-Aug-22 18:26 016 4 gusting 9 27.8
2019-Aug-22 18:21 018 6 gusting 12 27.8
2019-Aug-22 18:15 019 6 gusting 12 27.8
2019-Aug-22 18:10 009 6 gusting 10 27.8
2019-Aug-22 18:05 016 6 gusting 9 28.3
2019-Aug-22 18:00 013 6 gusting 10 28.3
2019-Aug-22 17:55 013 6 gusting 10 28.3
2019-Aug-22 17:50 035 6 gusting 9 28.9
2019-Aug-22 17:45 010 5 gusting 9 28.9
2019-Aug-22 17:40 011 6 gusting 11 28.9
2019-Aug-22 17:35 022 6 gusting 11 28.9
2019-Aug-22 17:31 016 7 gusting 11 28.9
2019-Aug-22 17:25 015 6 gusting 11 29.4
2019-Aug-22 17:20 034 6 gusting 10 29.4
2019-Aug-22 17:15 005 6 gusting 9 29.4
2019-Aug-22 17:10 017 6 gusting 11 29.4
2019-Aug-22 17:05 019 7 gusting 12 28.9
2019-Aug-22 17:00 019 6 gusting 12 28.9
2019-Aug-22 16:55 015 6 gusting 11 29.4
2019-Aug-22 16:50 012 6 gusting 11 29.4
2019-Aug-22 16:45 351 6 gusting 11 29.4
2019-Aug-22 16:40 348 6 gusting 11 29.4
2019-Aug-22 16:35 346 6 gusting 11 29.4
2019-Aug-22 16:30 355 7 gusting 12 28.9
2019-Aug-22 16:25 005 6 gusting 12 28.9
2019-Aug-22 16:20 342 6 gusting 9 29.4
2019-Aug-22 16:15 337 6 gusting 10 28.9
2019-Aug-22 16:10 321 6 gusting 12 29.4
2019-Aug-22 16:05 29.4
2019-Aug-22 16:00 350 6 gusting 10 29.4
2019-Aug-22 15:55 009 6 gusting 10 28.9
2019-Aug-22 15:50 015 6 gusting 10 29.4
2019-Aug-22 15:45 355 6 gusting 10 29.4
2019-Aug-22 15:40 329 6 gusting 11 28.3
2019-Aug-22 15:35 351 6 gusting 11 28.9
2019-Aug-22 15:30 319 6 gusting 10 28.9
2019-Aug-22 15:24 28.9
2019-Aug-22 15:19 311 6 gusting 13 28.9
2019-Aug-22 15:14 336 6 gusting 11 28.9
2019-Aug-22 15:09 312 6 gusting 9 28.9
2019-Aug-22 15:04 309 5 gusting 10 28.3
2019-Aug-22 14:59 336 6 gusting 9 28.3
2019-Aug-22 14:54 298 6 gusting 9 28.3
2019-Aug-22 14:49 307 6 gusting 9 28.3
2019-Aug-22 14:44 293 6 gusting 9 27.8
2019-Aug-22 14:39 342 6 gusting 9 28.3
2019-Aug-22 14:34 295 6 gusting 9 27.8
2019-Aug-22 14:29 331 6 gusting 9 28.3
2019-Aug-22 14:24 325 6 gusting 11 28.3
2019-Aug-22 14:19 325 6 gusting 11 28.9
2019-Aug-22 14:14 292 5 gusting 9 28.3
2019-Aug-22 14:09 302 5 gusting 8 27.8
2019-Aug-22 14:04 005 5 gusting 7 28.3
2019-Aug-22 14:00 296 5 gusting 8 27.8
2019-Aug-22 13:54 305 5 gusting 10 26.7
2019-Aug-22 13:49 294 5 gusting 10 26.7
2019-Aug-22 13:44 249 6 gusting 10 26.7
2019-Aug-22 13:39 355 6 gusting 10 26.1
2019-Aug-22 13:34 311 6 gusting 10 26.7
2019-Aug-22 13:29 315 6 gusting 10 25.6
2019-Aug-22 13:24 293 6 gusting 10 26.7
2019-Aug-22 13:19 082 6 gusting 10 26.1
2019-Aug-22 13:14 241 6 gusting 9 26.1
2019-Aug-22 13:09 323 6 gusting 8 25.6
2019-Aug-22 13:04 230 6 gusting 9 26.7
2019-Aug-22 12:59 290 6 gusting 9 26.7
2019-Aug-22 12:54 294 5 gusting 8 28.3
2019-Aug-22 12:49 270 6 gusting 9 26.7
2019-Aug-22 12:45 276 4 gusting 9 26.7
2019-Aug-22 12:39 313 5 gusting 8 28.3
2019-Aug-22 12:34 309 5 gusting 8 29.4
2019-Aug-22 12:30 284 3 gusting 7 30.6
2019-Aug-22 12:24 300 5 gusting 10 30.0
2019-Aug-22 12:19 280 7 gusting 12 30.6
2019-Aug-22 12:14 273 6 gusting 13 30.0
2019-Aug-22 12:09 248 4 gusting 6 32.2
2019-Aug-22 12:04 317 6 gusting 10 32.2
2019-Aug-22 11:59 260 6 gusting 10 31.7
2019-Aug-22 11:54 232 4 gusting 8 32.8
2019-Aug-22 11:49 290 3 gusting 7 32.8
2019-Aug-22 11:44 314 2 gusting 6 32.8
2019-Aug-22 11:39 349 1 gusting 5 32.8
2019-Aug-22 11:34 32.2
2019-Aug-22 11:29 336 3 gusting 6 31.7
2019-Aug-22 11:24 317 3 gusting 6 31.1
2019-Aug-22 11:19 317 4 gusting 7 30.6
2019-Aug-22 11:14 342 4 gusting 7 30.0
2019-Aug-22 11:09 333 4 gusting 6 29.4
2019-Aug-22 11:04 292 5 gusting 7 29.4
2019-Aug-22 10:59 334 4 gusting 7 30.0
2019-Aug-22 10:54 304 3 gusting 7 30.0
2019-Aug-22 10:49 279 2 gusting 6 30.6
2019-Aug-22 10:44 282 3 gusting 7 30.6
2019-Aug-22 10:39 349 4 gusting 7 30.6
2019-Aug-22 10:34 024 3 gusting 6 30.0
2019-Aug-22 10:29 049 3 gusting 6 30.0
2019-Aug-22 10:24 28.9
2019-Aug-22 10:19 332 0 gusting 2 28.3
2019-Aug-22 10:14 346 1 gusting 6 28.3
2019-Aug-22 10:09 346 2 gusting 6 27.8
2019-Aug-22 10:04 005 2 gusting 6 27.2
2019-Aug-22 09:59 330 1 gusting 3 27.2
2019-Aug-22 09:53 336 2 gusting 3 26.7
2019-Aug-22 09:48 323 2 gusting 4 26.1
2019-Aug-22 09:44 321 1 gusting 3 25.6
2019-Aug-22 09:38 322 1 gusting 3 25.6
2019-Aug-22 09:33 336 0 gusting 3 25.0
2019-Aug-22 09:28 312 0 gusting 2 24.4
2019-Aug-22 09:23 312 0 gusting 2 23.9
2019-Aug-22 09:18 312 0 gusting 2 23.3
2019-Aug-22 09:13 024 0 gusting 2 23.3
2019-Aug-22 09:08 025 0 gusting 4 22.8
2019-Aug-22 09:03 025 1 gusting 4 22.2
2019-Aug-22 09:00 025 1 gusting 4 22.2
2019-Aug-22 08:53 025 2 gusting 4 21.7
2019-Aug-22 08:48 009 1 gusting 3 21.7
2019-Aug-22 08:43 348 1 gusting 3 21.1
2019-Aug-22 08:38 302 1 gusting 3 20.6
2019-Aug-22 08:33 300 1 gusting 3 20.0
2019-Aug-22 08:28 299 0 gusting 2 19.4
2019-Aug-22 08:23 299 0 gusting 2 18.9
2019-Aug-22 08:18 053 0 gusting 2 18.9
2019-Aug-22 08:13 053 18.3
2019-Aug-22 08:08 053 17.8
2019-Aug-22 08:03 053 17.2
2019-Aug-22 07:58 053 17.2
2019-Aug-22 07:53 053 16.7
2019-Aug-22 07:47 053 16.1
2019-Aug-22 07:42 053 16.1
2019-Aug-22 07:37 053 15.6
2019-Aug-22 07:32 053 15.6
2019-Aug-22 07:27 053 15.6
2019-Aug-22 07:22 053 15.0
2019-Aug-22 07:17 053 0 gusting 1 15.0
2019-Aug-22 07:12 052 15.0
2019-Aug-22 07:07 052 14.4
2019-Aug-22 07:02 052 14.4
2019-Aug-22 06:56 052 0 gusting 1 14.4
2019-Aug-22 06:51 052 0 gusting 1 14.4
2019-Aug-22 06:46 052 14.4
2019-Aug-22 06:41 052 0 gusting 2 14.4
2019-Aug-22 06:36 052 0 gusting 2 14.4
2019-Aug-22 06:31 051 0 gusting 3 13.9
2019-Aug-22 06:26 051 1 gusting 3 13.9
2019-Aug-22 06:21 048 1 gusting 4 14.4
2019-Aug-22 06:16 048 2 gusting 4 13.9
2019-Aug-22 06:15 048 2 gusting 4 13.9
2019-Aug-22 06:06 048 2 gusting 5 14.4
2019-Aug-22 06:00 040 1 gusting 4 15.0
2019-Aug-22 05:55 084 1 gusting 4 15.0
2019-Aug-22 05:50 084 1 gusting 4 15.0
2019-Aug-22 05:45 087 15.6
2019-Aug-22 05:40 088 15.6
2019-Aug-22 05:35 087 0 gusting 1 15.6
2019-Aug-22 05:30 088 0 gusting 2 15.6
2019-Aug-22 05:25 088 15.6
2019-Aug-22 05:20 036 16.1
2019-Aug-22 05:15 036 16.1
2019-Aug-22 05:09 036 16.1
2019-Aug-22 05:04 036 16.1
2019-Aug-22 04:59 036 0 gusting 2 16.1
2019-Aug-22 04:54 036 1 gusting 3 16.1
2019-Aug-22 04:49 035 1 gusting 3 16.1
2019-Aug-22 04:44 044 0 gusting 2 16.1
2019-Aug-22 04:39 044 0 gusting 3 16.1
2019-Aug-22 04:33 044 0 gusting 3 16.1
2019-Aug-22 04:28 044 16.1
2019-Aug-22 04:23 044 16.1
2019-Aug-22 04:18 044 16.1
2019-Aug-22 04:13 044 0 gusting 2 16.1
2019-Aug-22 04:08 044 0 gusting 1 16.1
2019-Aug-22 04:03 044 0 gusting 2 16.1
2019-Aug-22 03:58 044 1 gusting 2 16.1
2019-Aug-22 03:52 044 1 gusting 4 16.1
2019-Aug-22 03:47 042 1 gusting 4 16.1
2019-Aug-22 03:42 041 0 gusting 3 16.1
2019-Aug-22 03:37 017 0 gusting 1 16.1
2019-Aug-22 03:32 017 1 gusting 3 16.1
2019-Aug-22 03:27 017 1 gusting 3 16.1
2019-Aug-22 03:21 017 0 gusting 2 16.1
2019-Aug-22 03:16 340 0 gusting 2 15.6
2019-Aug-22 03:15 340 0 gusting 2 15.6
2019-Aug-22 03:06 340 0 gusting 3 15.6
2019-Aug-22 03:00 360 15.6
2019-Aug-22 02:55 16.1
2019-Aug-22 02:50 360 0 gusting 3 16.1
2019-Aug-22 02:45 360 1 gusting 3 16.1
2019-Aug-22 02:40 342 2 gusting 4 16.1
2019-Aug-22 02:35 338 0 gusting 2 16.1
2019-Aug-22 02:29 229 16.1
2019-Aug-22 02:24 162 15.6
2019-Aug-22 02:19 162 15.6
2019-Aug-22 02:14 162 15.6
2019-Aug-22 02:09 162 15.6
2019-Aug-22 02:03 162 15.6
2019-Aug-22 02:00 162 15.6
2019-Aug-22 01:53 162 16.1
2019-Aug-22 01:48 162 15.6
2019-Aug-22 01:45 162 15.6
2019-Aug-22 01:38 162 16.1
2019-Aug-22 01:33 162 15.6
2019-Aug-22 01:27 162 16.1
2019-Aug-22 01:22 162 16.1
2019-Aug-22 01:17 162 16.1
2019-Aug-22 01:12 162 16.7
2019-Aug-22 01:07 162 16.1
2019-Aug-22 01:01 162 16.1
2019-Aug-22 00:56 162 16.7
2019-Aug-22 00:51 162 16.7
2019-Aug-22 00:46 162 0 gusting 2 16.7
2019-Aug-22 00:41 162 0 gusting 2 16.7
2019-Aug-22 00:36 167 0 gusting 3 16.7
2019-Aug-22 00:31 170 1 gusting 2 16.7
2019-Aug-22 00:26 170 1 gusting 3 16.7
2019-Aug-22 00:20 170 0 gusting 3 16.7
2019-Aug-22 00:15 169 0 gusting 1 16.7
2019-Aug-22 00:10 169 0 gusting 1 17.2
2019-Aug-22 00:05 169 0 gusting 1 16.7
2019-Aug-21 23:59 169 1 gusting 2 16.7
2019-Aug-21 23:54 169 0 gusting 3 17.8
2019-Aug-21 23:49 169 1 gusting 3 17.8
2019-Aug-21 23:45 169 0 gusting 3 17.2
2019-Aug-21 23:39 169 1 gusting 3 17.8
2019-Aug-21 23:34 087 1 gusting 4 17.8
2019-Aug-21 23:29 087 0 gusting 2 17.8
2019-Aug-21 23:24 071 17.8
2019-Aug-21 23:18 071 0 gusting 1 17.8
2019-Aug-21 23:13 071 1 gusting 3 17.8
2019-Aug-21 23:08 071 1 gusting 3 17.8
2019-Aug-21 23:03 026 0 gusting 5 17.8
2019-Aug-21 22:58 355 0 gusting 3 17.8
2019-Aug-21 22:53 040 0 gusting 2 18.3
2019-Aug-21 22:47 040 1 gusting 3 18.3
2019-Aug-21 22:42 040 0 gusting 3 18.3
2019-Aug-21 22:37 055 18.3
2019-Aug-21 22:32 055 18.3
2019-Aug-21 22:27 055 1 gusting 4 18.3
2019-Aug-21 22:22 015 2 gusting 6 18.3
2019-Aug-21 22:17 351 3 gusting 5 18.3
2019-Aug-21 22:11 005 1 gusting 2 18.3
2019-Aug-21 22:06 038 1 gusting 6 18.3
2019-Aug-21 22:01 030 2 gusting 3 18.3
2019-Aug-21 21:56 019 3 gusting 8 18.9
2019-Aug-21 21:51 032 5 gusting 7 18.9
2019-Aug-21 21:46 029 5 gusting 8 18.9
2019-Aug-21 21:41 030 5 gusting 6 18.9
2019-Aug-21 21:36 005 5 gusting 13 18.9
2019-Aug-21 21:31 015 5 gusting 6 18.9
2019-Aug-21 21:25 044 4 gusting 9 18.9
2019-Aug-21 21:20 348 5 gusting 9 18.9
2019-Aug-21 21:17 321 1 gusting 5 18.9
2019-Aug-21 21:10 290 1 gusting 5 18.9
2019-Aug-21 21:05 338 1 gusting 6 18.9
2019-Aug-21 21:00 213 1 gusting 6 18.9
2019-Aug-21 20:55 198 0 gusting 4 18.9
2019-Aug-21 20:49 017 0 gusting 4 19.4
2019-Aug-21 20:44 097 1 gusting 6 19.4
2019-Aug-21 20:39 093 1 gusting 6 19.4
2019-Aug-21 20:34 317 0 gusting 4 19.4
2019-Aug-21 20:29 297 1 gusting 5 19.4
2019-Aug-21 20:24 015 1 gusting 5 19.4
2019-Aug-21 20:19 225 2 gusting 6 19.4
2019-Aug-21 20:14 009 4 gusting 8 19.4
2019-Aug-21 20:08 355 4 gusting 8 19.4
2019-Aug-21 20:03 032 4 gusting 8 20.0
2019-Aug-21 19:58 027 4 gusting 8 20.0
2019-Aug-21 19:53 024 5 gusting 9 20.0
2019-Aug-21 19:47 005 5 gusting 6 20.0
2019-Aug-21 19:42 026 5 gusting 9 20.0
2019-Aug-21 19:37 021 5 gusting 8 20.6
2019-Aug-21 19:32 011 6 gusting 8 20.6
2019-Aug-21 19:27 005 5 gusting 9 20.6
2019-Aug-21 19:22 017 6 gusting 9 21.1
2019-Aug-21 19:17 024 6 gusting 9 21.1
2019-Aug-21 19:12 030 6 gusting 6 21.7
2019-Aug-21 19:07 020 6 gusting 10 21.7
2019-Aug-21 19:01 023 6 gusting 12 22.2
2019-Aug-21 18:56 030 6 gusting 11 22.2
2019-Aug-21 18:51 022 6 gusting 11 22.2
2019-Aug-21 18:46 005 5 gusting 9 22.8
2019-Aug-21 18:40 347 5 gusting 9 22.8
2019-Aug-21 18:35 005 6 gusting 10 22.8
2019-Aug-21 18:30 005 6 gusting 10 22.8
2019-Aug-21 18:25 011 7 gusting 13 22.8
2019-Aug-21 18:20 022 8 gusting 13 22.8
2019-Aug-21 18:18 005 8 gusting 14 22.8
2019-Aug-21 18:15 342 7 gusting 14 23.3
2019-Aug-21 18:10 011 7 gusting 13 23.3
2019-Aug-21 18:04 017 7 gusting 13 23.9
2019-Aug-21 17:59 015 8 gusting 13 23.9
2019-Aug-21 17:54 025 8 gusting 13 23.9
2019-Aug-21 17:49 024 7 gusting 13 23.9
2019-Aug-21 17:44 036 6 gusting 11 24.4
2019-Aug-21 17:39 016 6 gusting 13 24.4
2019-Aug-21 17:33 005 7 gusting 13 24.4
2019-Aug-21 17:28 022 7 gusting 15 24.4
2019-Aug-21 17:23 028 7 gusting 15 25.0
2019-Aug-21 17:17 015 7 gusting 13 25.0
2019-Aug-21 17:15 005 6 gusting 13 25.0
2019-Aug-21 17:07 347 6 gusting 12 25.6
2019-Aug-21 17:02 005 6 gusting 12 25.0
2019-Aug-21 16:57 005 8 gusting 12 25.0
2019-Aug-21 16:52 018 9 gusting 13 25.0
2019-Aug-21 16:47 030 7 gusting 13 25.0
2019-Aug-21 16:42 013 6 gusting 12 25.0
2019-Aug-21 16:36 024 7 gusting 12 24.4
2019-Aug-21 16:31 346 6 gusting 12 23.9
2019-Aug-21 16:26 341 6 gusting 13 24.4
2019-Aug-21 16:21 333 8 gusting 13 23.3
2019-Aug-21 16:16 298 7 gusting 13 24.4
2019-Aug-21 16:11 306 6 gusting 12 26.1
2019-Aug-21 16:05 321 6 gusting 11 26.7
2019-Aug-21 16:00 355 6 gusting 11 26.7
2019-Aug-21 15:55 327 6 gusting 11 26.1
2019-Aug-21 15:50 311 6 gusting 11 26.1
2019-Aug-21 15:45 315 6 gusting 10 25.6
2019-Aug-21 15:40 307 6 gusting 11 25.6
2019-Aug-21 15:35 317 6 gusting 11 26.7
2019-Aug-21 15:30 333 6 gusting 13 27.2
2019-Aug-21 15:25 005 8 gusting 13 27.2
2019-Aug-21 15:20 321 7 gusting 13 27.8
2019-Aug-21 15:14 345 7 gusting 13 27.8
2019-Aug-21 15:09 332 7 gusting 13 27.8
2019-Aug-21 15:04 315 8 gusting 13 27.8
2019-Aug-21 14:59 313 8 gusting 12 27.8
2019-Aug-21 14:53 338 7 gusting 11 28.3
2019-Aug-21 14:48 312 7 gusting 11 28.3
2019-Aug-21 14:43 335 6 gusting 12 28.9
2019-Aug-21 14:38 355 6 gusting 12 28.9
2019-Aug-21 14:33 289 6 gusting 10 28.9
2019-Aug-21 14:27 304 7 gusting 12 28.3
2019-Aug-21 14:22 349 8 gusting 10 28.3
2019-Aug-21 14:17 337 7 gusting 12 28.3
2019-Aug-21 14:12 302 6 gusting 11 30.0
2019-Aug-21 14:07 300 6 gusting 11 30.0
2019-Aug-21 14:01 338 6 gusting 11 29.4
2019-Aug-21 14:00 315 5 gusting 11 29.4
2019-Aug-21 13:51 355 6 gusting 10 29.4
2019-Aug-21 13:46 324 6 gusting 10 29.4
2019-Aug-21 13:41 307 5 gusting 9 28.9
2019-Aug-21 13:35 026 6 gusting 11 28.9
2019-Aug-21 13:30 347 6 gusting 11 28.3
2019-Aug-21 13:25 309 6 gusting 10 28.3
2019-Aug-21 13:20 327 5 gusting 10 28.3
2019-Aug-21 13:14 024 5 gusting 10 28.3
2019-Aug-21 13:09 328 6 gusting 10 27.8
2019-Aug-21 13:04 349 6 gusting 10 27.2
2019-Aug-21 13:00 355 6 gusting 10 27.2